FW6654 Weather Reports


time (UTC)temp
F
wind
direction
speed
knots
gust
knots
rain 1hr
in
rain 24hr
in
rain mn
in
humidity
%
barometer
mb
20260508080714 35 107 1.7 1.7 0.00 0.00 0.00 83 1005.3
20260508080617 26 202 0.0 0.0 0.00 0.01 0.00 87 1006.8
20260508080212 35 101 1.7 1.7 0.00 0.00 0.00 82 1005.4
20260508075708 35 98 1.7 1.7 0.00 0.00 0.00 82 1005.1
20260508075205 35 96 1.7 1.7 0.00 0.00 0.00 82 1005.2
20260508074718 25 202 0.0 0.0 0.00 0.01 0.00 87 1006.5
20260508074703 35 95 1.7 1.7 0.00 0.00 0.00 82 1005.1
20260508074200 36 116 0.9 1.7 0.00 0.00 0.00 80 1005.2
20260508073719 25 202 0.0 0.0 0.00 0.01 0.00 87 1006.8
20260508073657 36 98 1.7 1.7 0.00 0.00 0.00 79 1005.0
20260508073155 36 113 1.7 1.7 0.00 0.00 0.00 79 1005.0
20260508072719 25 112 0.0 0.0 0.00 0.01 0.00 88 1006.5
20260508072650 36 110 1.7 1.7 0.00 0.00 0.00 79 1005.0
20260508072148 36 113 1.7 1.7 0.00 0.00 0.00 81 1005.0
20260508071819 29 112 0.0 0.0 0.00 0.01 0.00 89 1006.2
20260508071645 36 116 0.9 1.7 0.00 0.00 0.00 79 1005.2
20260508071143 36 101 1.7 1.7 0.00 0.00 0.00 79 1005.0
20260508070917 32 112 0.0 0.0 0.00 0.01 0.00 87 1006.5
20260508070640 36 123 1.7 1.7 0.00 0.00 0.00 78 1005.1
20260508070139 36 133 1.7 1.7 0.00 0.00 0.00 78 1005.2
20260508065920 30 112 0.0 0.0 0.00 0.01 0.00 85 1006.8
20260508065636 37 124 1.7 1.7 0.00 0.00 0.00 79 1005.1
20260508065133 37 106 1.7 1.7 0.00 0.00 0.00 79 1005.2
20260508064631 37 114 1.7 1.7 0.00 0.00 0.00 78 1005.4
20260508064129 37 127 0.9 1.7 0.00 0.00 0.00 76 1005.2
20260508064017 28 112 0.0 0.0 0.00 0.01 0.00 85 1006.6
20260508063626 38 100 0.9 1.7 0.00 0.00 0.00 77 1005.3
20260508063124 39 119 1.7 2.6 0.00 0.00 0.00 72 1005.5
20260508063117 29 112 0.0 0.0 0.00 0.01 0.00 82 1006.8
20260508062621 40 134 2.6 2.6 0.00 0.00 0.00 70 1005.5
20260508062118 40 228 1.7 2.6 0.00 0.00 0.00 67 1005.5
20260508061615 39 85 0.0 1.7 0.00 0.00 0.00 70 1005.4
20260508061119 31 112 0.0 0.0 0.00 0.01 0.00 77 1007.2
20260508061113 37 196 0.0 1.7 0.00 0.00 0.00 76 1005.6
20260508060609 38 69 1.7 1.7 0.00 0.00 0.00 79 1005.7
20260508060120 31 202 0.0 0.9 0.00 0.01 0.00 79 1007.2
20260508060107 38 113 0.9 0.9 0.00 0.00 0.00 76 1005.8
20260508055602 39 73 0.9 1.7 0.00 0.00 0.00 73 1005.8
20260508055120 30 237 0.0 3.5 0.00 0.02 0.00 80 1007.3
20260508055059 39 95 1.7 1.7 0.00 0.00 0.00 70 1005.8
20260508054555 39 103 1.7 2.6 0.00 0.00 0.00 70 1005.8
20260508054053 39 106 1.7 2.6 0.00 0.00 0.00 72 1005.8
20260508054017 29 196 0.0 1.7 0.00 0.04 0.00 82 1007.2
20260508053549 40 74 1.7 2.6 0.00 0.00 0.00 71 1005.8
20260508053048 41 82 0.9 1.7 0.00 0.00 0.00 69 1005.7
20260508052545 41 152 0.0 0.9 0.00 0.00 0.00 68 1006.0
20260508052041 40 252 0.0 3.5 0.00 0.00 0.00 68 1005.9
20260508052019 29 247 0.0 0.0 0.00 0.08 0.00 84 1007.2
20260508051538 40 339 0.0 1.7 0.00 0.00 0.00 70 1006.0
20260508051033 39 124 0.0 2.6 0.00 0.00 0.00 73 1006.0
20260508050530 39 100 0.0 1.7 0.00 0.00 0.00 73 1005.8
20260508050217 29 202 0.0 0.0 0.00 0.09 0.00 85 1007.5
20260508050118 29 202 0.0 0.0 0.00 0.09 0.00 85 1007.5
20260508050027 40 108 1.7 1.7 0.00 0.00 0.00 69 1006.0
20260508045523 40 112 1.7 1.7 0.00 0.00 0.00 69 1006.1
20260508045119 29 202 0.0 0.0 0.00 0.10 0.00 85 1007.5
20260508045021 39 160 0.9 1.7 0.00 0.00 0.00 70 1006.1
20260508045017 29 202 0.0 0.0 0.00 0.10 0.00 85 1007.5
20260508044518 39 42 0.9 1.7 0.00 0.00 0.00 75 1006.0
20260508044017 29 202 0.0 0.0 0.00 0.11 0.00 86 1007.5
20260508044014 38 108 0.9 1.7 0.00 0.00 0.00 78 1006.1
20260508043510 38 97 0.9 0.9 0.00 0.00 0.00 77 1006.0
20260508043018 29 202 0.0 0.0 0.00 0.11 0.00 85 1007.5
20260508043007 38 95 0.9 1.7 0.00 0.00 0.00 76 1006.1
20260508042504 39 118 1.7 1.7 0.00 0.00 0.00 76 1006.0
20260508042020 31 202 0.0 0.0 0.00 0.13 0.00 84 1007.6
20260508042002 39 117 1.7 1.7 0.00 0.00 0.00 73 1006.3
20260508041458 39 92 0.9 1.7 0.00 0.00 0.00 71 1006.1
20260508041118 31 202 0.0 0.0 0.00 0.14 0.00 81 1007.9
20260508040955 39 99 1.7 1.7 0.00 0.00 0.00 72 1006.1
20260508040452 39 93 1.7 1.7 0.00 0.00 0.00 74 1006.2
20260508040118 32 202 0.0 0.0 0.00 0.15 0.00 81 1007.9
20260508035949 39 95 0.0 1.7 0.00 0.14 0.14 73 1006.2
20260508035446 39 118 0.9 1.7 0.00 0.14 0.14 70 1006.4
20260508034943 40 100 0.9 1.7 0.00 0.14 0.14 71 1006.2
20260508034441 40 103 1.7 1.7 0.00 0.14 0.14 67 1006.3
20260508034215 34 202 0.0 0.0 0.00 0.16 0.15 79 1008.2
20260508033937 40 94 0.9 1.7 0.00 0.14 0.14 66 1006.4
20260508033435 40 104 1.7 1.7 0.00 0.14 0.14 67 1006.5
20260508033216 36 202 0.0 0.0 0.00 0.16 0.15 75 1007.9
20260508032932 41 97 1.7 2.6 0.00 0.14 0.14 69 1006.5
20260508032430 41 114 1.7 1.7 0.00 0.14 0.14 68 1006.1
20260508032218 36 202 0.0 0.0 0.00 0.17 0.15 71 1008.1
20260508031926 41 134 0.9 1.7 0.00 0.14 0.14 71 1006.2
20260508031424 41 89 0.0 0.0 0.00 0.14 0.14 71 1006.1
20260508031215 35 164 0.0 1.7 0.00 0.18 0.15 74 1007.9
20260508030919 42 113 0.0 0.9 0.00 0.14 0.14 65 1006.4
20260508030416 42 79 0.9 1.7 0.00 0.14 0.14 67 1006.5
20260508030215 34 289 0.0 0.9 0.00 0.18 0.15 79 1007.9
20260508025913 42 86 1.7 1.7 0.00 0.14 0.14 62 1006.3
20260508025410 43 97 0.9 1.7 0.00 0.14 0.14 61 1006.3
20260508025215 33 202 0.0 0.0 0.00 0.18 0.15 79 1007.9
20260508024907 44 76 0.9 2.6 0.00 0.14 0.14 63 1006.3
20260508024404 45 110 1.7 1.7 0.00 0.14 0.14 59 1006.3
20260508024215 33 202 0.0 0.0 0.00 0.18 0.15 75 1007.9
20260508023900 46 96 0.9 1.7 0.00 0.14 0.14 57 1006.0
20260508023357 44 303 0.9 1.7 0.00 0.14 0.14 56 1006.0
20260508023217 34 202 0.0 0.0 0.00 0.18 0.15 74 1007.9
20260508022854 43 245 1.7 1.7 0.00 0.14 0.14 60 1006.0
20260508022350 43 145 0.0 0.0 0.00 0.14 0.14 67 1006.2
20260508022314 34 202 0.0 0.0 0.00 0.18 0.15 73 1007.5
20260508021847 43 89 0.0 0.9 0.00 0.14 0.14 66 1006.0
20260508021343 44 102 0.0 1.7 0.00 0.14 0.14 65 1006.0
20260508021317 33 202 0.0 0.0 0.00 0.18 0.15 75 1007.6
20260508020839 44 101 1.7 1.7 0.00 0.14 0.14 64 1006.2
20260508020337 44 77 0.0 0.9 0.00 0.14 0.14 60 1006.0
20260508020316 33 202 0.0 0.0 0.00 0.18 0.15 71 1007.9
20260508015834 44 81 0.9 1.7 0.00 0.14 0.14 60 1006.1
20260508015332 45 87 0.9 1.7 0.00 0.14 0.14 58 1006.2
20260508015318 33 202 0.0 0.0 0.00 0.18 0.15 70 1007.9
20260508014828 45 70 0.0 1.7 0.00 0.14 0.14 58 1006.1
20260508014326 46 80 0.9 1.7 0.00 0.14 0.14 59 1006.0
20260508014315 45 202 0.0 0.0 0.00 0.18 0.15 67 1007.9
20260508013825 46 33 0.0 1.7 0.00 0.14 0.14 54 1006.1
20260508013323 46 62 1.7 1.7 0.00 0.14 0.14 58 1006.0
20260508012820 46 306 0.0 0.9 0.00 0.14 0.14 54 1006.0
20260508012414 48 202 0.0 0.0 0.00 0.18 0.15 60 1007.9
20260508012317 46 293 0.0 0.0 0.00 0.14 0.14 53 1006.0
20260508011815 47 288 0.0 0.9 0.00 0.14 0.14 55 1006.0
20260508011312 47 337 0.0 0.9 0.00 0.14 0.14 54 1006.1
20260508010809 48 282 0.0 0.0 0.00 0.14 0.14 51 1006.0
20260508010514 49 146 0.0 1.7 0.00 0.18 0.15 54 1007.9
20260508010307 48 214 0.0 1.7 0.00 0.14 0.14 51 1006.0
20260508005804 48 5 0.0 1.7 0.00 0.14 0.14 49 1006.2
20260508005514 50 315 0.0 1.7 0.00 0.19 0.15 52 1007.9
20260508005300 48 304 0.0 1.7 0.00 0.14 0.14 51 1006.1
20260508004756 48 14 0.9 1.7 0.00 0.14 0.14 49 1005.9
20260508004613 51 299 1.7 2.6 0.00 0.19 0.15 51 1007.9
20260508004253 48 321 0.0 1.7 0.00 0.14 0.14 50 1006.0
20260508003749 48 3 0.9 1.7 0.00 0.14 0.14 50 1005.9
20260508003614 51 286 0.0 0.0 0.00 0.19 0.15 51 1007.8
20260508003247 48 8 1.7 1.7 0.00 0.14 0.14 54 1005.9
20260508002743 49 54 1.7 1.7 0.00 0.14 0.14 51 1005.8
20260508002615 52 247 0.0 1.7 0.00 0.19 0.15 49 1007.5
20260508002515 52 265 0.0 1.7 0.00 0.19 0.15 49 1007.5
20260508002416 52 238 0.0 1.7 0.00 0.19 0.15 49 1007.5
20260508002241 49 0 0.0 1.7 0.00 0.14 0.14 50 1005.9
20260508001736 49 338 1.7 1.7 0.00 0.14 0.14 49 1005.7
20260508001418 52 253 0.9 2.6 0.00 0.19 0.15 49 1007.6
20260508001231 50 165 1.7 1.7 0.00 0.14 0.14 50 1005.8
20260508000728 50 25 0.0 1.7 0.00 0.14 0.14 49 1005.8
20260508000514 53 322 2.6 5.2 0.00 0.19 0.15 48 1007.5
20260508000227 50 6 1.7 2.6 0.00 0.14 0.14 47 1005.8
20260507235721 51 257 0.9 2.6 0.00 0.14 0.14 47 1005.6
20260507235614 54 336 0.9 2.6 0.00 0.19 0.15 47 1007.5
20260507235516 54 305 1.7 4.3 0.00 0.19 0.15 47 1007.5
20260507235219 51 43 0.0 2.6 0.00 0.14 0.14 46 1005.4
20260507234716 52 59 1.7 2.6 0.00 0.14 0.14 48 1005.5
20260507234516 55 314 0.0 3.5 0.00 0.19 0.15 46 1007.2
20260507234213 52 352 0.9 1.7 0.00 0.14 0.14 46 1005.4
20260507233709 53 162 0.0 1.7 0.00 0.14 0.14 43 1005.1
20260507233614 55 208 0.0 0.0 0.00 0.19 0.15 45 1006.9
20260507233208 53 262 0.9 2.6 0.00 0.14 0.14 44 1004.9
20260507232704 53 357 0.0 1.7 0.00 0.14 0.14 44 1004.8
20260507232616 56 354 1.7 4.3 0.00 0.19 0.15 45 1006.8
20260507232201 54 6 1.7 3.5 0.00 0.14 0.14 43 1004.6
20260507231658 54 347 1.7 3.5 0.00 0.14 0.14 43 1004.7
20260507231614 56 306 2.6 6.1 0.00 0.20 0.15 44 1006.5
20260507231155 54 42 1.7 3.5 0.00 0.14 0.14 43 1004.5
20260507230651 55 334 2.6 3.5 0.00 0.14 0.14 43 1004.4
20260507230616 57 263 0.0 1.7 0.00 0.23 0.15 46 1006.3
20260507230149 55 331 2.6 4.3 0.00 0.14 0.14 41 1004.1
20260507225714 58 231 0.9 2.6 0.00 0.24 0.15 45 1006.2
20260507225648 55 327 2.6 4.3 0.00 0.14 0.14 42 1004.0
20260507225145 56 265 3.5 5.2 0.00 0.14 0.14 41 1003.9
20260507224715 59 340 1.7 4.3 0.00 0.25 0.15 45 1005.5
20260507224641 56 0 1.7 2.6 0.00 0.14 0.14 43 1003.8
20260507224138 56 352 2.6 4.3 0.00 0.14 0.14 42 1003.6
20260507223634 57 323 3.5 3.5 0.00 0.14 0.14 42 1003.5
20260507223131 57 15 1.7 4.3 0.00 0.14 0.14 43 1003.5
20260507222715 60 334 3.5 7.8 0.00 0.27 0.15 45 1005.5
20260507222628 58 349 2.6 6.1 0.00 0.14 0.14 43 1003.4
20260507222124 58 342 2.6 3.5 0.00 0.14 0.14 44 1003.3
20260507221717 60 331 1.7 3.5 0.00 0.28 0.15 44 1005.2
20260507221620 58 46 2.6 5.2 0.00 0.14 0.14 43 1003.4
20260507221117 59 252 2.6 3.5 0.00 0.14 0.14 42 1003.1
20260507220715 62 294 1.7 4.3 0.00 0.30 0.15 41 1005.2
20260507220614 60 300 2.6 3.5 0.00 0.14 0.14 39 1003.1
20260507220112 61 321 1.7 4.3 0.00 0.14 0.14 37 1002.9
20260507215714 63 271 0.9 3.5 0.00 0.31 0.15 39 1004.8
20260507215608 61 322 1.7 3.5 0.00 0.14 0.14 35 1002.9
20260507215106 61 356 2.6 3.5 0.00 0.14 0.14 34 1003.0
20260507214715 62 302 0.9 3.5 0.00 0.33 0.15 39 1004.8
20260507214603 62 2 2.6 5.2 0.00 0.14 0.14 34 1002.9
20260507214058 62 312 1.7 5.2 0.00 0.14 0.14 36 1003.0
20260507213715 62 264 0.9 3.5 0.00 0.33 0.15 39 1004.8
20260507213555 62 276 2.6 5.2 0.00 0.14 0.14 33 1002.8
20260507213052 62 210 4.3 4.3 0.00 0.14 0.14 37 1002.6
20260507212714 63 277 0.9 4.3 0.00 0.35 0.15 39 1004.8
20260507212548 62 258 0.0 2.6 0.00 0.14 0.14 38 1002.7
20260507212045 61 257 2.6 4.3 0.00 0.14 0.14 37 1002.7
20260507211714 65 288 2.6 7.8 0.00 0.37 0.15 38 1004.6
20260507211542 62 306 1.7 4.3 0.00 0.14 0.14 37 1002.7
20260507211038 64 295 3.5 9.6 0.00 0.14 0.14 35 1002.5
20260507210716 65 346 3.5 8.7 0.00 0.39 0.15 39 1004.5
20260507210535 62 247 3.5 6.1 0.00 0.14 0.14 36 1002.6
20260507210032 63 249 5.2 8.7 0.00 0.14 0.14 34 1002.5
20260507205716 65 266 1.7 4.3 0.00 0.41 0.15 41 1004.5
20260507205529 63 282 2.6 5.2 0.00 0.14 0.14 36 1002.6
20260507205025 63 282 4.3 11.3 0.00 0.14 0.14 36 1002.4
20260507204521 64 328 1.7 6.1 0.00 0.14 0.14 37 1002.5
20260507204019 63 230 5.2 8.7 0.00 0.14 0.14 39 1002.5
20260507203717 64 298 2.6 5.2 0.00 0.46 0.15 46 1004.5
20260507203517 62 303 1.7 5.2 0.00 0.14 0.14 42 1002.6
20260507203014 61 281 2.6 7.0 0.00 0.14 0.14 43 1002.4
20260507202715 64 308 0.0 3.5 0.00 0.48 0.15 47 1004.5
20260507202509 61 246 3.5 5.2 0.00 0.14 0.14 42 1002.3
20260507202006 63 293 2.6 3.5 0.00 0.14 0.14 41 1002.3
20260507201714 64 285 1.7 5.2 0.00 0.51 0.15 46 1004.2
20260507201502 62 274 3.5 3.5 0.00 0.14 0.14 45 1002.4
20260507200958 61 310 1.7 7.8 0.00 0.14 0.14 45 1002.3
20260507200454 62 254 4.3 6.1 0.00 0.14 0.14 42 1002.5
20260507195949 62 285 2.6 7.8 0.00 0.14 0.14 43 1002.4
20260507195447 62 247 2.6 3.5 0.00 0.14 0.14 45 1002.3
20260507194945 61 335 1.7 4.3 0.00 0.14 0.14 46 1002.3
20260507194715 64 328 0.9 4.3 0.00 0.57 0.15 46 1004.1
20260507194441 62 260 3.5 7.8 0.00 0.14 0.14 42 1002.4
20260507193937 64 249 4.3 10.4 0.00 0.14 0.14 39 1002.4
20260507193815 64 332 0.9 3.5 0.00 0.59 0.15 46 1004.1
20260507193434 64 247 6.1 8.7 0.00 0.14 0.14 40 1002.4
20260507192931 62 282 2.6 4.3 0.00 0.14 0.14 44 1002.6
20260507192815 65 230 1.7 6.1 0.00 0.61 0.15 46 1004.5
20260507192427 61 278 1.7 4.3 0.00 0.14 0.14 45 1002.2
20260507191924 61 227 6.1 9.6 0.00 0.14 0.14 43 1002.5
20260507191816 66 44 0.9 4.3 0.00 0.63 0.15 45 1004.3
20260507191420 62 260 3.5 6.1 0.00 0.14 0.14 43 1002.5
20260507190916 63 268 1.7 5.2 0.00 0.14 0.14 43 1002.5
20260507190414 62 244 7.0 7.8 0.00 0.14 0.14 44 1002.5
20260507190014 65 264 1.7 4.3 0.00 0.63 0.15 50 1004.5
20260507185913 62 247 2.6 10.4 0.00 0.14 0.14 44 1002.5
20260507185410 62 224 0.9 7.0 0.00 0.14 0.14 49 1002.6
20260507185016 64 202 0.0 1.7 0.00 0.63 0.15 49 1004.5
20260507184907 61 233 1.7 7.0 0.00 0.14 0.14 50 1002.6
20260507184405 60 213 2.6 3.5 0.00 0.14 0.14 49 1002.8
20260507183902 61 288 3.5 5.2 0.00 0.14 0.14 48 1002.7
20260507183359 61 273 2.6 3.5 0.00 0.14 0.14 47 1002.8
20260507183016 65 219 2.6 5.2 0.00 0.63 0.15 50 1004.6
20260507182856 63 196 1.7 2.6 0.00 0.14 0.14 44 1002.6
20260507182351 62 292 0.0 7.8 0.00 0.14 0.14 48 1002.9
20260507182016 64 171 1.7 3.5 0.00 0.63 0.15 52 1004.8
20260507181848 62 233 2.6 7.0 0.00 0.14 0.14 47 1002.9
20260507181344 60 222 3.5 4.3 0.00 0.14 0.14 49 1003.1
20260507181017 64 175 0.9 3.5 0.00 0.63 0.15 51 1005.0
20260507180841 60 218 2.6 7.0 0.00 0.14 0.14 49 1003.0
20260507180338 60 232 0.9 9.6 0.00 0.14 0.14 50 1003.1
20260507180015 65 202 0.9 2.6 0.00 0.63 0.15 50 1004.9
20260507175833 61 277 1.7 6.1 0.00 0.14 0.14 48 1003.1
20260507175331 61 257 3.5 7.0 0.00 0.14 0.14 46 1003.1
20260507175113 64 332 0.9 4.3 0.00 0.63 0.15 50 1005.0
20260507174828 61 257 6.1 8.7 0.00 0.14 0.14 45 1003.1
20260507174326 60 323 1.7 7.8 0.00 0.14 0.14 48 1003.1
20260507174114 63 308 1.7 4.3 0.00 0.63 0.15 48 1005.2
20260507173823 60 276 1.7 5.2 0.00 0.14 0.14 50 1003.3
20260507173320 60 300 3.5 3.5 0.00 0.14 0.14 46 1003.1
20260507173115 63 329 1.7 3.5 0.00 0.63 0.15 50 1005.2
20260507172816 60 265 2.6 7.8 0.00 0.14 0.14 43 1003.1
20260507172313 61 248 3.5 7.0 0.00 0.14 0.14 46 1003.1
20260507172115 64 297 1.7 4.3 0.00 0.63 0.15 51 1005.2
20260507171809 61 284 1.7 7.8 0.00 0.14 0.14 48 1003.2
20260507171306 61 288 1.7 7.8 0.00 0.14 0.14 49 1003.3
20260507171116 64 81 0.0 0.9 0.00 0.63 0.15 51 1005.2
20260507170803 62 236 4.3 4.3 0.00 0.14 0.14 44 1003.4
20260507170259 62 297 3.5 5.2 0.00 0.14 0.14 47 1003.2
20260507170116 64 337 1.7 2.6 0.00 0.63 0.15 49 1005.2
20260507165755 62 296 2.6 5.2 0.00 0.14 0.14 46 1003.4
20260507165251 61 328 1.7 4.3 0.00 0.14 0.14 54 1003.4
20260507165115 65 328 0.9 2.6 0.00 0.63 0.15 50 1005.4
20260507164748 62 39 0.9 3.5 0.00 0.14 0.14 49 1003.3
20260507164245 61 97 0.9 2.6 0.00 0.14 0.14 56 1003.3
20260507164118 65 241 1.7 5.2 0.00 0.63 0.15 51 1005.5
20260507163742 62 343 0.0 1.7 0.00 0.14 0.14 53 1003.6
20260507163240 60 243 1.7 4.3 0.00 0.14 0.14 53 1003.7
20260507163214 64 309 1.7 5.2 0.00 0.63 0.15 52 1005.8
20260507162735 60 101 1.7 3.5 0.00 0.14 0.14 52 1003.9
20260507162231 60 290 3.5 5.2 0.00 0.14 0.14 53 1003.7
20260507161729 59 76 0.0 1.7 0.00 0.14 0.14 54 1003.8
20260507161225 59 322 1.7 3.5 0.00 0.14 0.14 56 1004.0
20260507161215 64 333 1.7 4.3 0.00 0.63 0.15 54 1005.8
20260507160721 60 237 3.5 4.3 0.00 0.14 0.14 49 1004.1
20260507160218 61 333 2.6 3.5 0.00 0.14 0.14 46 1004.0
20260507160214 64 318 2.6 4.3 0.00 0.63 0.15 53 1006.0
20260507155713 62 341 0.0 1.7 0.00 0.14 0.14 51 1004.1
20260507155215 64 287 0.9 2.6 0.00 0.63 0.15 56 1006.2
20260507155210 62 264 2.6 4.3 0.00 0.14 0.14 51 1004.2
20260507154706 61 37 1.7 2.6 0.00 0.14 0.14 51 1004.2
20260507154215 63 282 1.7 4.3 0.00 0.63 0.15 57 1006.2
20260507154204 62 269 0.0 3.5 0.00 0.14 0.14 49 1004.0
20260507153700 60 208 1.7 1.7 0.00 0.14 0.14 48 1004.3
20260507153216 63 64 0.9 4.3 0.00 0.63 0.15 56 1006.2
20260507153157 60 319 1.7 3.5 0.00 0.14 0.14 51 1004.4
20260507152653 59 290 1.7 3.5 0.00 0.14 0.14 55 1004.3
20260507152217 63 156 1.7 3.5 0.00 0.63 0.15 57 1006.2
20260507152149 57 156 1.7 1.7 0.00 0.14 0.14 59 1004.4
20260507151646 58 331 0.9 1.7 0.00 0.14 0.14 59 1004.3
20260507151215 62 351 0.9 3.5 0.00 0.63 0.15 59 1006.3
20260507151143 58 286 0.9 1.7 0.00 0.14 0.14 59 1004.4
20260507150640 59 271 1.7 3.5 0.00 0.14 0.14 61 1004.5
20260507150313 61 112 0.9 1.7 0.00 0.63 0.15 61 1006.5
20260507150136 59 224 1.7 3.5 0.00 0.14 0.14 58 1004.4
20260507145631 59 80 3.5 3.5 0.00 0.14 0.14 55 1004.6
20260507145315 61 30 0.9 2.6 0.00 0.63 0.15 63 1006.5
20260507145129 59 147 4.3 5.2 0.00 0.14 0.14 56 1004.5
20260507144625 59 103 0.9 3.5 0.00 0.14 0.14 55 1004.7
20260507144124 59 74 1.7 2.6 0.00 0.14 0.14 58 1004.7
20260507143620 59 87 1.7 2.6 0.00 0.14 0.14 57 1004.6
20260507143315 60 112 0.9 2.6 0.00 0.63 0.15 66 1006.8
20260507143216 60 112 1.7 2.6 0.00 0.63 0.15 66 1006.6
20260507143118 59 259 1.7 2.6 0.00 0.14 0.14 61 1004.9
20260507142613 58 355 2.6 2.6 0.00 0.14 0.14 63 1004.8
20260507142216 60 323 0.9 1.7 0.00 0.63 0.15 67 1007.1
20260507142110 58 85 1.7 3.5 0.00 0.14 0.14 63 1004.8
20260507141606 58 330 0.0 1.7 0.00 0.14 0.14 66 1004.9
20260507141215 60 290 1.7 5.2 0.00 0.63 0.15 67 1007.2
20260507141103 57 163 1.7 3.5 0.00 0.14 0.14 63 1005.1
20260507140559 55 46 1.7 2.6 0.00 0.14 0.14 69 1005.2
20260507140314 61 113 0.0 1.7 0.00 0.63 0.15 69 1007.2
20260507140057 55 185 1.7 2.6 0.00 0.14 0.14 68 1005.2
20260507135554 55 311 1.7 3.5 0.00 0.14 0.14 74 1005.0
20260507135316 60 71 0.0 1.7 0.00 0.63 0.15 73 1007.2
20260507135051 54 349 0.0 4.3 0.00 0.14 0.14 72 1004.9
20260507134548 55 286 1.7 2.6 0.00 0.14 0.14 69 1005.1
20260507134318 59 43 0.9 3.5 0.00 0.63 0.15 73 1007.2
20260507134043 54 34 1.7 2.6 0.00 0.14 0.14 74 1005.2
20260507133540 55 307 0.9 1.7 0.00 0.14 0.14 71 1005.3
20260507133314 59 208 1.7 3.5 0.00 0.63 0.15 75 1007.2
20260507133038 55 326 1.7 1.7 0.00 0.14 0.14 73 1005.2
20260507132534 55 343 1.7 2.6 0.00 0.14 0.14 72 1005.2
20260507132031 55 223 5.2 5.2 0.00 0.14 0.14 74 1005.2
20260507131527 54 37 2.6 2.6 0.00 0.14 0.14 74 1005.3
20260507131315 59 209 1.7 5.2 0.00 0.63 0.15 78 1007.5
20260507131025 54 333 1.7 2.6 0.00 0.14 0.14 74 1005.4
20260507130522 53 333 0.0 1.7 0.00 0.14 0.14 76 1005.3
20260507130315 58 315 0.9 1.7 0.00 0.63 0.15 80 1007.3
20260507130020 53 296 0.9 2.6 0.00 0.14 0.14 76 1005.3
20260507125518 52 8 1.7 3.5 0.00 0.14 0.14 80 1005.3
20260507125315 57 294 1.7 2.6 0.00 0.63 0.15 82 1007.2
20260507125015 51 254 1.7 4.3 0.00 0.14 0.14 78 1005.3
20260507124511 51 278 1.7 2.6 0.00 0.14 0.14 80 1005.3
20260507124315 56 33 1.7 3.5 0.00 0.63 0.15 85 1007.5
20260507124216 56 316 0.0 1.7 0.00 0.63 0.15 86 1007.5
20260507124009 51 32 0.0 1.7 0.00 0.14 0.14 81 1005.6
20260507123507 51 228 0.0 1.7 0.00 0.14 0.14 83 1005.5
20260507123216 55 295 0.9 7.0 0.00 0.63 0.15 87 1007.3
20260507123003 50 337 0.9 1.7 0.00 0.14 0.14 83 1005.3
20260507122458 50 291 0.9 2.6 0.00 0.14 0.14 83 1005.5
20260507122216 55 292 0.0 1.7 0.00 0.63 0.15 89 1007.5
20260507121955 50 54 1.7 4.3 0.00 0.14 0.14 84 1005.6
20260507121450 49 52 1.7 3.5 0.00 0.14 0.14 88 1005.7
20260507121315 54 348 0.0 3.5 0.00 0.63 0.15 90 1007.9
20260507120947 48 71 1.7 1.7 0.00 0.14 0.14 90 1005.7
20260507120443 48 44 0.0 1.7 0.00 0.14 0.14 89 1005.6
20260507120415 54 337 0.0 0.9 0.00 0.63 0.15 92 1007.6
20260507115940 48 23 1.7 2.6 0.00 0.14 0.14 90 1005.7
20260507115436 48 66 0.0 2.6 0.00 0.14 0.14 92 1005.8
20260507115415 54 184 1.7 2.6 0.00 0.63 0.15 92 1007.7
20260507114932 47 175 0.0 1.7 0.00 0.14 0.14 93 1005.6
20260507114514 53 223 0.9 2.6 0.00 0.63 0.15 92 1007.5
20260507114428 47 354 0.9 1.7 0.00 0.14 0.14 93 1005.5
20260507113926 47 74 0.9 1.7 0.00 0.14 0.14 92 1005.6
20260507113518 52 314 0.0 1.7 0.00 0.63 0.15 92 1007.9
20260507113423 47 150 0.0 0.9 0.00 0.14 0.14 91 1005.8
20260507112920 47 304 1.7 1.7 0.00 0.14 0.14 92 1005.9
20260507112614 51 157 0.0 1.7 0.00 0.63 0.15 92 1007.7
20260507112417 46 236 0.9 1.7 0.00 0.14 0.14 94 1005.9
20260507111915 46 116 0.9 1.7 0.00 0.14 0.14 93 1005.6
20260507111615 51 292 0.0 0.0 0.00 0.63 0.15 92 1007.5
20260507111412 46 70 0.9 4.3 0.00 0.14 0.14 93 1005.7
20260507110908 46 284 0.0 0.9 0.00 0.14 0.14 94 1005.7
20260507110614 50 337 0.0 1.7 0.00 0.63 0.15 92 1007.2
20260507110404 46 302 0.0 0.9 0.00 0.14 0.14 94 1005.2
20260507105901 46 263 2.6 2.6 0.00 0.14 0.14 94 1005.7
20260507105614 50 292 0.0 0.0 0.00 0.63 0.15 92 1007.5
20260507105358 46 273 1.7 3.5 0.00 0.14 0.14 95 1005.6
20260507104854 46 65 0.0 0.0 0.00 0.14 0.14 96 1005.7
20260507104615 49 235 0.0 0.9 0.00 0.63 0.15 92 1007.5
20260507104351 46 44 0.0 1.7 0.00 0.14 0.14 97 1005.6
20260507103847 46 55 0.0 1.7 0.00 0.14 0.14 98 1005.3
20260507103614 49 292 0.0 0.0 0.00 0.63 0.15 92 1007.2
20260507103344 46 311 1.7 1.7 0.00 0.14 0.14 98 1005.2
20260507102840 46 202 0.0 2.6 0.00 0.14 0.14 99 1005.1
20260507102616 49 180 0.0 0.0 0.00 0.63 0.15 92 1007.2
20260507102337 46 142 0.9 1.7 0.00 0.14 0.14 99 1005.2
20260507101833 45 218 1.7 2.6 0.00 0.14 0.14 99 1005.1
20260507101615 49 180 0.0 0.0 0.00 0.63 0.15 92 1006.8
20260507101517 49 180 0.0 0.0 0.00 0.63 0.15 92 1006.8
20260507101333 45 63 0.9 1.7 0.00 0.14 0.14 99 1005.0
20260507100831 45 40 0.9 1.7 0.00 0.14 0.14 99 1005.2
20260507100615 48 180 0.0 0.0 0.00 0.63 0.15 92 1007.2
20260507100329 45 319 0.0 0.0 0.00 0.14 0.14 99 1005.2
20260507095827 45 89 0.0 0.9 0.00 0.14 0.14 99 1005.2
20260507095713 48 180 0.0 0.0 0.00 0.63 0.15 92 1007.2
20260507095323 45 89 0.0 1.7 0.00 0.14 0.14 99 1005.3
20260507094820 45 57 0.0 1.7 0.00 0.14 0.14 99 1005.2
20260507094316 45 63 1.7 1.7 0.00 0.14 0.14 99 1005.0
20260507093814 45 44 0.0 1.7 0.00 0.14 0.14 99 1005.2
20260507093714 48 180 0.0 0.0 0.00 0.63 0.15 92 1006.8
20260507093312 45 62 0.9 1.7 0.00 0.14 0.14 99 1004.8
20260507092810 45 218 0.9 0.9 0.00 0.14 0.14 99 1005.2
20260507092716 48 180 0.0 0.0 0.00 0.63 0.15 92 1006.8
20260507092307 45 109 0.0 0.9 0.00 0.14 0.14 99 1005.2
20260507091802 45 299 0.0 1.7 0.00 0.14 0.14 99 1005.2
20260507091714 48 180 0.0 0.0 0.01 0.63 0.15 92 1007.2
20260507091259 45 130 0.9 1.7 0.00 0.14 0.14 99 1005.5
20260507090759 45 257 0.0 0.9 0.00 0.14 0.14 99 1005.1
20260507090715 48 180 0.0 0.0 0.01 0.63 0.15 92 1006.5
20260507090256 45 66 1.7 1.7 0.00 0.14 0.14 99 1004.5
20260507085753 45 96 0.9 0.9 0.00 0.14 0.14 99 1004.8
20260507085715 48 180 0.0 0.0 0.01 0.63 0.15 92 1006.5
20260507085250 46 124 0.0 0.9 0.00 0.14 0.14 99 1004.8
20260507084747 46 59 1.7 1.7 0.00 0.14 0.14 99 1004.8
20260507084716 49 180 0.0 0.0 0.01 0.63 0.15 92 1006.5
20260507084243 46 73 0.9 2.6 0.00 0.14 0.14 99 1005.2
20260507083815 49 180 0.0 0.9 0.01 0.63 0.15 92 1006.8
20260507083741 46 269 0.0 0.9 0.00 0.14 0.14 99 1005.1
20260507083237 46 127 1.7 2.6 0.00 0.14 0.14 98 1004.8
20260507082815 49 270 0.0 0.0 0.01 0.63 0.15 92 1006.7
20260507082734 46 81 1.7 1.7 0.00 0.14 0.14 98 1004.7
20260507082229 46 83 1.7 1.7 0.00 0.14 0.14 99 1004.8
20260507081816 50 270 0.0 0.0 0.00 0.62 0.14 92 1006.8
20260507081726 46 35 0.0 1.7 0.00 0.14 0.14 98 1004.9
20260507081222 46 29 0.9 1.7 0.00 0.14 0.14 99 1004.7